Weather History for Buffalo, WY

Change the Weather History Date:

Wednesday, January 9, 2013

  Actual Average Record
Temperature  
Mean Temperature 39 °F 28 °F  
Max Temperature 54 °F 39 °F 54 °F (2013)
Min Temperature 23 °F 17 °F -2 °F (2011)
Degree Days  
Heating Degree Days 26 37  
Month to date heating degree days 293 339  
Since 1 July heating degree days 3018 3386  
Cooling Degree Days 0 0  
Month to date cooling degree days 0 0  
Year to date cooling degree days 0 0  
Moisture  
Dew Point 18 °F    
Average Humidity 40    
Maximum Humidity 65    
Minimum Humidity 15    
Precipitation  
Precipitation 0.00 in 0.02 in 0.04 in (2005)
Month to date precipitation T 0.10  
Year to date precipitation T 0.10  
Sea Level Pressure  
Sea Level Pressure 29.93 in    
Wind  
Wind Speed 9 mph (South)    
Max Wind Speed 30 mph    
Max Gust Speed 36 mph    
Visibility 10 miles    
Events      
T = Trace of Precipitation, MM = Missing Value Source: NWS Daily Summary

Daily Weather History Graph

Daily Weather History Graph

Search for Another Location

Airport:

Trip Planner

Search our weather history database for the weather conditions in past years. The results will help you decide how hot, cold, wet, or windy it might be!

Date:

Astronomy

Jan. 09, 2013 Rise Set
Actual Time 7:41 AM MST 4:46 PM MST
Civil Twilight 7:09 AM MST 5:19 PM MST
Nautical Twilight 6:32 AM MST 5:55 PM MST
Astronomical Twilight 5:57 AM MST 6:30 PM MST
Moon 5:24 AM MST (1/9) 2:51 PM MST (1/9)
Length of Visible Light 10h 10m
Length of Day
9h 04m
Waning Crescent, 6% of the Moon is Illuminated
Jan 9
Waning Crescent
Jan 11
New
Jan 18
First Quarter
Jan 26
Full
Feb 3
Last Quarter

Hourly Weather History & Observations

Time (MST) Temp. Windchill Dew Point Humidity Pressure Visibility Wind Dir Wind Speed Gust Speed Precip Events Conditions
12:53 AM 23.0 °F 17.0 °F 12.0 °F 63% 30.08 in 10.0 mi Variable 4.6 mph - N/A   Clear
1:53 AM 23.0 °F 13.9 °F 12.0 °F 63% 30.09 in 10.0 mi SW 8.1 mph - N/A   Clear
2:53 AM 36.0 °F 29.6 °F 15.1 °F 43% 30.05 in 10.0 mi SSW 8.1 mph - N/A   Clear
3:53 AM 37.0 °F 33.3 °F 16.0 °F 42% 30.04 in 10.0 mi Variable 4.6 mph - N/A   Clear
4:53 AM 35.1 °F - 15.1 °F 44% 30.07 in 10.0 mi Calm Calm - N/A   Clear
5:53 AM 36.0 °F 32.1 °F 16.0 °F 44% 30.05 in 10.0 mi SSW 4.6 mph - N/A   Clear
6:53 AM 32.0 °F 23.0 °F 16.0 °F 52% 30.08 in 10.0 mi WSW 11.5 mph - N/A   Clear
7:53 AM 37.0 °F 34.5 °F 16.0 °F 42% 30.07 in 10.0 mi Variable 3.5 mph - N/A   Clear
8:53 AM 42.1 °F 37.1 °F 16.0 °F 35% 30.05 in 10.0 mi SSW 8.1 mph - N/A   Clear
9:53 AM 44.1 °F 40.8 °F 19.0 °F 37% 30.05 in 10.0 mi NNE 5.8 mph - N/A   Clear
10:53 AM 42.1 °F 37.7 °F 24.1 °F 49% 30.04 in 10.0 mi ESE 6.9 mph - N/A   Clear
11:53 AM 45.0 °F 41.2 °F 27.0 °F 49% 30.01 in 10.0 mi South 6.9 mph - N/A   Clear
12:53 PM 46.0 °F 42.5 °F 28.0 °F 50% 29.98 in 10.0 mi SE 6.9 mph - N/A   Clear
1:53 PM 48.0 °F - 28.9 °F 48% 29.94 in 10.0 mi ESE 8.1 mph - N/A   Clear
2:53 PM 52.0 °F - 27.0 °F 38% 29.88 in 10.0 mi South 8.1 mph - N/A   Clear
3:53 PM 48.9 °F - 19.9 °F 32% 29.86 in 10.0 mi Calm Calm - N/A   Clear
4:53 PM 50.0 °F - 12.0 °F 22% 29.82 in 10.0 mi SSW 27.6 mph 35.7 mph N/A   Clear
5:53 PM 46.0 °F 38.3 °F 15.1 °F 29% 29.84 in 10.0 mi SSE 20.7 mph - N/A   Clear
6:53 PM 43.0 °F 35.7 °F 18.0 °F 37% 29.84 in 10.0 mi South 15.0 mph - N/A   Clear
7:53 PM 41.0 °F 35.8 °F 18.0 °F 40% 29.78 in 10.0 mi SE 8.1 mph - N/A   Clear
8:53 PM 48.9 °F - 10.9 °F 22% 29.73 in 10.0 mi SSE 15.0 mph 24.2 mph N/A   Clear
9:53 PM 53.1 °F - 6.1 °F 15% 29.71 in 10.0 mi South 21.9 mph 33.4 mph N/A   Clear
10:44 PM 39.2 °F 31.6 °F 17.6 °F 42% 29.75 in 10.0 mi ESE 12.7 mph 24.2 mph N/A   Clear
10:53 PM 39.9 °F 32.5 °F 18.0 °F 41% 29.75 in 10.0 mi SE 12.7 mph 20.7 mph N/A   Clear
11:53 PM 39.0 °F 34.8 °F 18.0 °F 43% 29.73 in 10.0 mi South 5.8 mph - N/A   Clear